www.pogodaiklimat.ru

Погода и климат >> Архив погоды >> Италия >> Ронки-деи-Леджонари


ПОГОДА в Ронки-деи-Леджонари

  • Прогноз погоды в Ронки-деи-Леджонари
  • Монитор погоды в Ронки-деи-Леджонари

АРХИВ ПОГОДЫ в Ронки-деи-Леджонари

Время (UTC), дата Ветер
(напр.,м/с)
 
Видим.   Явления Облачность Т
(С)
Тd
(С)
f
(%)
Тe
(С)
Тes
(С)
Комфортность P
(гПа)
Po
(гПа)
Тmin
(С)
Tmax
(С)
R
(мм)
R24
(мм)
S
(см)
12 12.07 Ю 3 10 км ясно +26.8 +16.3 53 +30 +46 душно 1011.6 1010.1
15 12.07 Ю 3 10 км 9/4 1500 м
[Sc As op]
+25.6 +18.4 64 +30 +32 душно 1011.1 1009.7
18 12.07 ЮВ 3 10 км 1/0
[Ac trans]
+24.5 +17.6 65 +29 +29 душно 1010.4 1008.9 +27.5
21 12.07 В 2 10 км ясно +19.6 +17.5 88 +23 +23 комфорт 1011.2 1009.7
00 13.07 н/о н/о +18.7 +16.8 89 1010.8 1009.3
03 13.07 В 2 н/о н/о +19.6 +15.5 77 +22 +22 комфорт 1009.6 1008.1
06 13.07 В 2 10 км 6/0
[Ac trans]
+21.6 +15.6 69 +25 +28 комфорт 1009.9 1008.4 +18.2
09 13.07 Ю 2 10 км 3/3 1050 м
[Cu hum]
+24.5 +16.9 63 +28 +39 душно 1010.5 1009.0
12 13.07 ЮЗ 5 10 км гроза без осадков 3/3 900 м
[Cb calv]
+26.3 +16.1 53 +30 +37 душно 1010.1 1008.7
15 13.07 ЮВ 3 10 км 9/0
[Ac As]
+20.1 +16.3 79 +23 +25 комфорт 1010.9 1009.4
18 13.07 З 2 10 км ясно +19.7 +17.5 87 +23 +23 комфорт 1011.6 1010.1 +26.7 9
21 13.07 10 км ясно +17.3 +17.1 99 1012.7 1011.2
00 14.07 СВ 1 н/о н/о +15.2 +15.2 100 +16 +16 1012.8 1011.3 0.2
03 14.07 н/о н/о +14.3 +14.2 99 1011.9 1010.5
06 14.07 10 км ясно +18.0 +15.0 83 1012.1 1010.6 +13.6 0.2
09 14.07 10 км ясно +24.7 +14.7 54 1012.8 1011.3
12 14.07 З 4 10 км ясно +27.1 +13.5 43 +29 +41 жарко 1011.8 1010.4
15 14.07 З 3 10 км 3/3 900 м
[Cb cap]
+27.0 +12.1 40 +28 +33 жарко 1011.2 1009.7
18 14.07 С 2 10 км 6/0 1500 м
[Ac cuf]
+22.7 +15.1 62 +27 +27 душно 1010.9 1009.5 +27.4
21 14.07 СВ 2 10 км 6/0
[Ac trans]
+19.8 +14.4 71 +22 +22 комфорт 1011.8 1010.3
00 15.07 СВ 2 н/о н/о +18.7 +15.2 80 +20 +20 1011.6 1010.1
03 15.07 СВ 2 н/о н/о +19.8 +13.1 65 +22 +22 комфорт 1011.1 1009.6
06 15.07 В 6 10 км 1/1 900 м
[Sc]
+22.1 +12.4 54 +25 +26 комфорт 1010.9 1009.5 +17.9
09 15.07 В 8 10 км 3/0
[Ac trans]
+25.1 +11.8 43 +27 +29 жарко 1011.3 1009.8
12 15.07 В 7 10 км 6/0
[Ci fib]
+26.7 +11.8 39 +28 +32 жарко 1010.9 1009.4
15 15.07 ЮВ 7 10 км 4/3 900 м
[Cu hum Ac As Cs]
+27.5 +10.1 34 +28 +30 жарко 1010.7 1009.2
18 15.07 СЗ 6 10 км 5/0 1500 м
[Ac trans]
+22.2 +14.9 63 +26 +26 душно 1011.9 1010.5 +28.5
21 15.07 С 2 10 км ясно +20.0 +14.6 71 +23 +23 комфорт 1013.1 1011.6
00 16.07 н/о н/о +18.6 +13.6 73 1013.4 1011.9
03 16.07 С 2 н/о н/о +16.7 +12.2 75 +17 +17 1013.1 1011.6
06 16.07 С 3 10 км ясно +19.6 +13.5 68 +22 +25 комфорт 1013.7 1012.2 +15.5
09 16.07 С 3 10 км ясно +26.3 +11.9 41 +28 +41 жарко 1013.4 1011.9
12 16.07 З 4 10 км 3/3 1200 м
[Cu hum]
+28.2 +12.7 38 +30 +38 жарко 1012.8 1011.4
15 16.07 З 4 10 км 1/1 1500 м
[Sc]
+29.2 +11.7 34 +30 +35 жарко 1011.8 1010.4
18 16.07 З 3 10 км ясно +27.1 +14.3 45 +29 +30 жарко 1011.7 1010.3 +29.5
21 16.07 10 км ясно +20.1 +16.3 79 1013.0 1011.5
00 17.07 В 2 н/о н/о +18.2 +13.8 75 +19 +19 1013.8 1012.3
03 17.07 н/о н/о +16.1 +14.6 91 1013.4 1011.9
06 17.07 нст 1 10 км 1/0
[Ac trans]
+20.9 +14.8 68 +25 +29 комфорт 1013.7 1012.2 +15.6
09 17.07 Ю 2 10 км ясно +26.7 +17.9 59 +31 +46 душно 1013.2 1011.7
12 17.07 ЮЗ 4 10 км ясно +28.3 +16.5 49 +32 +45 душно 1012.4 1010.9
15 17.07 Ю 4 10 км ясно +28.7 +13.7 40 +31 +36 жарко 1011.4 1010.0
18 17.07 Ю 2 10 км ясно +25.7 +16.5 57 +29 +30 душно 1010.9 1009.4 +29.6
21 17.07 СВ 2 10 км ясно +22.4 +17.0 72 +27 +27 душно 1011.4 1009.9
00 18.07 СЗ 2 н/о н/о +21.1 +16.8 76 +25 +25 комфорт 1011.8 1010.3
03 18.07 В 3 н/о н/о +18.9 +17.7 93 +21 +21 комфорт 1011.5 1010.0
06 18.07 С 2 10 км ясно +19.6 +17.6 88 +23 +27 комфорт 1011.6 1010.1 +18.4 2
09 18.07 С 1 10 км ясно +26.2 +16.0 53 +29 +46 жарко 1011.7 1010.3
12 18.07 ЮЗ 5 10 км ясно +28.5 +13.5 40 +30 +40 жарко 1012.0 1010.5
15 18.07 З 3 10 км 8/0
[Ac trans]
+26.7 +16.7 54 +30 +34 душно 1012.0 1010.5
18 18.07 С 3 10 км 5/0
[Ac trans]
+22.7 +14.7 61 +26 +27 жарко 1012.4 1011.0 +29.3
21 18.07 С 2 10 км ясно +18.8 +16.4 86 +20 +20 1014.0 1012.6
00 19.07 С 2 н/о н/о +17.9 +15.0 83 +18 +18 1014.7 1013.2
03 19.07 С 2 н/о н/о +17.4 +15.7 90 +18 +18 1014.8 1013.3
06 19.07 С 2 10 км ясно +21.9 +15.2 66 +25 +29 комфорт 1015.3 1013.8 +16.4
09 19.07 З 1 10 км ясно +27.2 +15.4 48 +30 +47 душно 1015.8 1014.3

 

Местоположение метеостанции Ронки-деи-Леджонари (Италия): широта 45.82 долгота 13.48 высота над уровнем моря 12 м.

В архиве по умолчанию представлена погода в Ронки-деи-Леджонари за последнюю неделю. Архивные данные за месяц целиком и за предыдущие месяцы, начиная с января 2011 года, Вы можете получить, выбрав интересующий диапазон дат из раскрывающегося списка и нажав кнопку "Ввод!".


*Определитесь, кто Вы:
робот инопланетянин человек

Внимание! Время в таблицах - всемирное. Для получения местного времени необходимо прибавить поправку, которая равна 1 ч.

Смотрите также архив погоды в соседних городах и на ближайших метеорологических станциях:

Погода в Новой Горице (Словения) (15 км)
Погода в Триесте (Италия) (28 км)
Погода в Портороже (Словения) (34 км)
Погода на Базе ВВС Риволто (Италия) (39 км)
Погода на Войско (Словения) (40 км)
Погода в Конкордия-Саджиттарии (Италия) (49 км)
Погода в Постойнской (Словения) (56 км)
Погода на Вогеле (Словения) (57 км)
Погода на Кредарике (Словения) (69 км)
Погода на Базе ВВС Авиано (Италия) (71 км)

Пояснения к столбцам:

Ветер - указаны скорость ветра в м/с - средняя за 10 мин, порывы в срок и между сроками (в фигурных скобках) и направление, откуда дует ветер: С - северный, СВ - северо-восточный, В - восточный, ЮВ - юго-восточный, Ю - южный, ЮЗ - юго-западный, З - западный, СЗ - северо-западный.
Видимость - горизонтальная дальность видимости в метрах или километрах. При видимости от 1 до 10 км при отсутствии осадков обычно наблюдается дымка, при ухудшении видимости до 1 км и менее - туман. В сухую погоду видимость может ухудшаться дымом, пылью или мглою.
Явления - указаны атмосферные явления, наблюдавшиеся в срок или в последний час перед сроком; фигурными скобками обозначены явления, наблюдавшиеся между сроками (за 1-3 часа до срока); квадратными скобками обозначены град или гололедные отложения с указанием их диаметра в мм.
Облачность - указаны через наклонную черту общая и нижняя облачность в баллах и высота нижней границы облаков в метрах; квадратными скобками обозначены формы облаков: Ci - перистые, Cs - перисто-слоистые, Cc - перисто-кучевые, Ac - высококучевые, As - высокослоистые, Sc - слоисто-кучевые, Ns - слоисто-дождевые, Cu - кучевые, Cb - кучево-дождевые. Подробнее классификацию облаков см. в Атласе облаков (PDF).
T - Температура воздуха - температура, измеренная на высоте 2 м над землей.
Td - Температура точки росы - температура, при понижении до которой содержащийся в воздухе водяной пар достигнет насыщения.
f - Относительная влажность воздуха - влажноcть воздуха, измеренная на высоте 2 м над землей.
Te - Эффективная температура - температура, которую ощущает одетый по сезону человек в тени. Характеристика душности погоды. При расчете учитывается влияние влажности воздуха и скорости ветра на теплоощущения человека.
Tes - Эффективная температура на солнце - температура, которую ощущает человек, с поправкой на солнечный нагрев. Характеристика знойности погоды. Зависит от высоты солнца над горизонтом, облачности и скорости ветра. Ночью, в пасмурную погоду, а также при ветре 12 м/с и более поправка равна нулю.
P - Атмосферное давление - приведенное к уровню моря атмосферное давление.
Po - Атмосферное давление - измеренное на уровне метеостанции атмосферное давление.
Tmin - Минимальная температура - минимум температуры воздуха на высоте 2 м над землей.
Tmax - Максимальная температура - максимум температуры воздуха на высоте 2 м над землей.
R - Количество осадков - Количество выпавших осадков за период времени, мм. При наведении курсора мыши на число - период времени, за который выпало указанное количество осадков.
R24 - Количество осадков - Количество выпавших осадков за 24 часа, мм.
S - Снежный покров - Высота снежного покрова, см. При наведении курсора мыши на число - состояние снежного покрова и степень покрытия местности в баллах.